Weather History for Clemson, SC

Change the Weather History Date:

Thursday, September 26, 2013

  Actual Average Record
Temperature  
Mean Temperature 70 °F -  
Max Temperature 80 °F 78 °F 91 °F (1954)
Min Temperature 63 °F 57 °F 41 °F (1943)
Cooling Degree Days 6    
Growing Degree Days 20 (Base 50)    
Moisture  
Dew Point 59 °F    
Average Humidity 72    
Maximum Humidity 88    
Minimum Humidity 52    
Precipitation  
Precipitation 0.00 in - - ()
Sea Level Pressure  
Sea Level Pressure 29.95 in    
Wind  
Wind Speed 3 mph (NE)    
Max Wind Speed 7 mph    
Max Gust Speed -    
Visibility 9 miles    
Events      
Averages and records for this station are not official NWS values.
T = Trace of Precipitation, MM = Missing Value Source: NWS Daily Summary

Daily Weather History Graph

Daily Weather History Graph

Search for Another Location

Airport:

Trip Planner

Search our weather history database for the weather conditions in past years. The results will help you decide how hot, cold, wet, or windy it might be!

Date:

Astronomy

Sep. 26, 2013 Rise Set
Actual Time 7:22 AM EDT 7:22 PM EDT
Civil Twilight 6:57 AM EDT 7:47 PM EDT
Nautical Twilight 6:28 AM EDT 8:16 PM EDT
Astronomical Twilight 5:58 AM EDT 8:46 PM EDT
Moon No Moon Rise 2:01 PM EDT
Length of Visible Light 12h 49m
Length of Day
11h 59m
Waning Gibbous, 55% of the Moon is Illuminated
Sep 26
Waning Gibbous
Sep 26
Last Quarter
Oct 4
New
Oct 11
First Quarter
Oct 18
Full

Hourly Weather History & Observations

Time (EDT) Temp. Dew Point Humidity Pressure Visibility Wind Dir Wind Speed Gust Speed Precip Events Conditions
12:29 AM 64.4 °F 60.8 °F 88% 29.94 in 10.0 mi NNE 3.5 mph - N/A   Overcast
12:52 AM 64.4 °F 60.8 °F 88% 29.93 in 8.0 mi Calm Calm - N/A   Overcast
12:54 AM 64.9 °F 60.1 °F 84% 29.91 in 8.0 mi NE 3.5 mph - N/A   Overcast
1:54 AM 64.0 °F 60.1 °F 87% 29.90 in 7.0 mi NNW 3.5 mph - N/A   Overcast
2:54 AM 64.0 °F 59.0 °F 84% 29.90 in 9.0 mi Calm Calm - N/A   Overcast
3:54 AM 64.0 °F 59.0 °F 84% 29.89 in 9.0 mi Calm Calm - N/A   Overcast
4:54 AM 64.9 °F 59.0 °F 81% 29.88 in 9.0 mi Calm Calm - N/A   Overcast
5:54 AM 64.0 °F 59.0 °F 84% 29.90 in 9.0 mi Calm Calm - N/A   Overcast
6:54 AM 63.0 °F 59.0 °F 87% 29.92 in 6.0 mi Calm Calm - N/A   Mostly Cloudy
7:54 AM 64.0 °F 59.0 °F 84% 29.94 in 7.0 mi Calm Calm - N/A   Overcast
8:54 AM 66.0 °F 57.9 °F 75% 29.96 in 10.0 mi East 4.6 mph - N/A   Overcast
9:54 AM 66.9 °F 57.9 °F 73% 29.99 in 10.0 mi NE 3.5 mph - N/A   Overcast
10:54 AM 69.1 °F 59.0 °F 70% 29.99 in 10.0 mi East 4.6 mph - N/A   Mostly Cloudy
11:54 AM 73.0 °F 59.0 °F 61% 29.98 in 10.0 mi Variable 4.6 mph - N/A   Partly Cloudy
12:54 PM 75.0 °F 57.9 °F 55% 29.97 in 10.0 mi NE 6.9 mph - N/A   Partly Cloudy
1:54 PM 75.0 °F 57.9 °F 55% 29.96 in 10.0 mi Variable 3.5 mph - N/A   Overcast
2:54 PM 75.9 °F 57.9 °F 54% 29.95 in 10.0 mi Variable 3.5 mph - N/A   Mostly Cloudy
3:54 PM 75.9 °F 59.0 °F 56% 29.94 in 10.0 mi SSE 3.5 mph - N/A   Scattered Clouds
4:54 PM 78.1 °F 59.0 °F 52% 29.94 in 10.0 mi Calm Calm - N/A   Partly Cloudy
5:54 PM 77.0 °F 60.1 °F 56% 29.96 in 10.0 mi East 4.6 mph - N/A   Partly Cloudy
6:54 PM 73.9 °F 55.9 °F 53% 29.97 in 10.0 mi ENE 3.5 mph - N/A   Overcast
7:54 PM 72.0 °F 59.0 °F 64% 29.99 in 10.0 mi NNE 3.5 mph - N/A   Overcast
8:54 PM 70.0 °F 60.1 °F 71% 30.01 in 10.0 mi North 3.5 mph - N/A   Mostly Cloudy
9:54 PM 68.0 °F 59.0 °F 73% 30.02 in 10.0 mi NNE 4.6 mph - N/A   Clear
10:54 PM 66.0 °F 59.0 °F 78% 30.03 in 10.0 mi NNE 3.5 mph - N/A   Clear
11:54 PM 66.0 °F 57.0 °F 73% 30.04 in 10.0 mi NE 3.5 mph - N/A   Clear